This is the latest recevied weather packets stored in our database for station/object WO5CID. If no packets are shown the sender has not sent any weather packets the latest 1 day(s).
| Time | Temp. | Humidity | Pressure | Rain* | Wind** | Luminosity | Snow |
|---|---|---|---|---|---|---|---|
| 1778068632 | 16.67° C | 89% | 1016.6 hPa | 0 mm | - | 73 W/m² | - |
| 1778068330 | 16.67° C | 91% | 1016.5 hPa | 0 mm | - | 68 W/m² | - |
| 1778068027 | 16.11° C | 92% | 1016.5 hPa | 0 mm | - | 64 W/m² | - |
| 1778067423 | 15.56° C | 95% | 1016.6 hPa | 0 mm | - | 56 W/m² | - |
| 1778067120 | 15° C | 95% | 1016.4 hPa | 0 mm | - | 51 W/m² | - |
| 1778066816 | 15° C | 96% | 1016.6 hPa | 0 mm | - | 45 W/m² | - |
| 1778066514 | 15° C | 96% | 1016.3 hPa | 0 mm | - | 37 W/m² | - |
| 1778066211 | 14.44° C | 96% | 1016.2 hPa | 0 mm | - | 32 W/m² | - |
| 1778065909 | 14.44° C | 96% | 1016.3 hPa | 0 mm | - | 28 W/m² | - |
| 1778065606 | 14.44° C | 96% | 1016.3 hPa | 0 mm | - | 23 W/m² | - |
| 1778064395 | 14.44° C | 95% | 1016.2 hPa | 0 mm | - | 3 W/m² | - |
| 1778063486 | 14.44° C | 94% | 1015.7 hPa | 0 mm | - | 0 W/m² | - |
| 1778062578 | 14.44° C | 95% | 1015.9 hPa | 0 mm | - | 0 W/m² | - |
| 1778061671 | 14.44° C | 95% | 1015.9 hPa | 0 mm | - | 0 W/m² | - |
| 1778061370 | 14.44° C | 94% | 1015.9 hPa | 0 mm | - | 0 W/m² | - |
| 1778061066 | 14.44° C | 94% | 1015.9 hPa | 0 mm | - | 0 W/m² | - |
| 1778060461 | 14.44° C | 93% | 1016 hPa | 0 mm | - | 0 W/m² | - |
| 1778059856 | 14.44° C | 93% | 1015.5 hPa | 0 mm | - | 0 W/m² | - |
| 1778059554 | 14.44° C | 94% | 1015.8 hPa | 0 mm | - | 0 W/m² | - |
| 1778058949 | 14.44° C | 93% | 1015.6 hPa | 0 mm | - | 0 W/m² | - |
| 1778058646 | 14.44° C | 93% | 1015.8 hPa | 0 mm | - | 0 W/m² | - |
| 1778057737 | 15° C | 92% | 1015.7 hPa | 0 mm | - | 0 W/m² | - |
| 1778057433 | 15° C | 92% | 1015.6 hPa | 0 mm | - | 0 W/m² | - |
| 1778056826 | 15° C | 91% | 1015.6 hPa | 0 mm | - | 0 W/m² | - |
| 1778056221 | 15° C | 91% | 1015.2 hPa | 0 mm | - | 0 W/m² | - |
* Rain latest hour (hover to see other rain measurements)
** Current wind speed in m/s (hover to see current wind gust speed)